| time (UTC) | temp F | wind direction | speed knots | gust knots | rain 1hr in | rain 24hr in | rain mn in | humidity % | barometer mb |
| 20260504190004 | 81 | 171 | 0.9 | 7.0 | 0.00 | 0.00 | 0.00 | 58 | 1013.8 |
| 20260504185004 | 82 | 244 | 0.9 | 7.8 | 0.00 | 0.00 | 0.00 | 57 | 1014.1 |
| 20260504183004 | 81 | 189 | 0.9 | 5.2 | 0.00 | 0.00 | 0.00 | 60 | 1014.2 |
| 20260504181004 | 80 | 129 | 1.7 | 8.7 | 0.00 | 0.00 | 0.00 | 58 | 1014.3 |
| 20260504180004 | 80 | 228 | 0.9 | 8.7 | 0.00 | 0.00 | 0.00 | 58 | 1014.6 |
| 20260504175003 | 80 | 213 | 0.9 | 7.8 | 0.00 | 0.00 | 0.00 | 60 | 1014.8 |
| 20260504174004 | 79 | 183 | 1.7 | 10.4 | 0.00 | 0.00 | 0.00 | 60 | 1015.0 |
| 20260504173004 | 79 | 193 | 1.7 | 7.0 | 0.00 | 0.00 | 0.00 | 59 | 1014.8 |
| 20260504172004 | 79 | 158 | 0.0 | 2.6 | 0.00 | 0.00 | 0.00 | 60 | 1015.2 |
| 20260504171004 | 79 | 251 | 1.7 | 7.0 | 0.00 | 0.00 | 0.00 | 61 | 1015.2 |
| 20260504151004 | 74 | 156 | 1.7 | 5.2 | 0.00 | 0.00 | 0.00 | 69 | 1016.2 |
| 20260504141004 | 70 | 198 | 1.7 | 4.3 | 0.00 | 0.00 | 0.00 | 74 | 1016.2 |
| 20260504082004 | 58 | 202 | 0.0 | 0.0 | 0.00 | 0.00 | 0.00 | 83 | 1016.6 |
| 20260504081004 | 58 | 202 | 0.0 | 0.0 | 0.00 | 0.00 | 0.00 | 82 | 1016.9 |
| 20260504050004 | 60 | 202 | 0.0 | 0.0 | 0.00 | 0.00 | 0.00 | 75 | 1018.9 |
| 20260504045005 | 61 | 202 | 0.0 | 0.0 | 0.00 | 0.00 | 0.00 | 74 | 1018.9 |
| 20260504044004 | 61 | 202 | 0.0 | 0.0 | 0.00 | 0.00 | 0.00 | 73 | 1018.9 |
| 20260504043005 | 62 | 202 | 0.0 | 0.0 | 0.00 | 0.00 | 0.00 | 72 | 1019.0 |
| 20260504042005 | 62 | 202 | 0.0 | 0.0 | 0.00 | 0.00 | 0.00 | 71 | 1019.2 |
| 20260504041005 | 63 | 202 | 0.0 | 0.0 | 0.00 | 0.00 | 0.00 | 70 | 1019.0 |
| 20260504040004 | 63 | 202 | 0.0 | 0.0 | 0.00 | 0.00 | 0.00 | 69 | 1019.0 |
| 20260504035004 | 64 | 202 | 0.0 | 0.0 | 0.00 | 0.00 | 0.00 | 68 | 1018.8 |
| 20260504034004 | 64 | 202 | 0.0 | 0.0 | 0.00 | 0.00 | 0.00 | 67 | 1018.9 |
| 20260504033005 | 65 | 202 | 0.0 | 0.0 | 0.00 | 0.00 | 0.00 | 66 | 1019.1 |
| 20260504032004 | 66 | 202 | 0.0 | 0.0 | 0.00 | 0.00 | 0.00 | 64 | 1018.9 |
| 20260504031004 | 66 | 202 | 0.0 | 0.9 | 0.00 | 0.00 | 0.00 | 63 | 1018.8 |
| 20260504030004 | 67 | 203 | 0.0 | 0.9 | 0.00 | 0.00 | 0.00 | 62 | 1018.8 |
| 20260504025003 | 67 | 165 | 0.0 | 0.0 | 0.00 | 0.00 | 0.00 | 61 | 1018.8 |
| 20260504023006 | 68 | 130 | 0.0 | 0.9 | 0.00 | 0.00 | 0.00 | 60 | 1018.6 |
| 20260504022004 | 68 | 173 | 0.0 | 1.7 | 0.00 | 0.00 | 0.00 | 60 | 1018.7 |
| 20260504021004 | 68 | 180 | 0.0 | 0.9 | 0.00 | 0.00 | 0.00 | 58 | 1018.6 |
| 20260504015004 | 69 | 146 | 0.0 | 1.7 | 0.00 | 0.00 | 0.00 | 56 | 1018.4 |
| 20260504014004 | 70 | 95 | 0.0 | 1.7 | 0.00 | 0.00 | 0.00 | 56 | 1018.3 |
| 20260504013004 | 70 | 100 | 0.0 | 0.9 | 0.00 | 0.00 | 0.00 | 55 | 1018.2 |
| 20260504011004 | 71 | 142 | 0.0 | 0.0 | 0.00 | 0.00 | 0.00 | 53 | 1018.2 |
| 20260504004004 | 73 | 154 | 0.0 | 1.7 | 0.00 | 0.00 | 0.00 | 50 | 1018.3 |
| 20260504003005 | 73 | 175 | 0.0 | 0.9 | 0.00 | 0.00 | 0.00 | 49 | 1018.2 |
| 20260504001004 | 74 | 120 | 0.0 | 2.6 | 0.00 | 0.00 | 0.00 | 47 | 1018.2 |
| 20260504000004 | 75 | 155 | 0.0 | 7.0 | 0.00 | 0.00 | 0.00 | 47 | 1018.2 |
| 20260503235004 | 76 | 137 | 0.0 | 5.2 | 0.00 | 0.00 | 0.00 | 46 | 1018.2 |
| 20260503234004 | 76 | 180 | 2.6 | 5.2 | 0.00 | 0.00 | 0.00 | 45 | 1018.2 |
| 20260503233004 | 77 | 154 | 0.9 | 4.3 | 0.00 | 0.00 | 0.00 | 44 | 1018.3 |
| 20260503231004 | 79 | 117 | 0.9 | 5.2 | 0.00 | 0.00 | 0.00 | 41 | 1018.4 |
| 20260503230004 | 80 | 125 | 0.9 | 5.2 | 0.00 | 0.00 | 0.00 | 42 | 1018.4 |
| 20260503225004 | 80 | 71 | 0.9 | 2.6 | 0.00 | 0.00 | 0.00 | 42 | 1018.5 |
| 20260503224004 | 80 | 269 | 0.9 | 2.6 | 0.00 | 0.00 | 0.00 | 39 | 1018.7 |
| 20260503223003 | 79 | 91 | 0.9 | 2.6 | 0.00 | 0.00 | 0.00 | 39 | 1018.6 |
| 20260503222004 | 80 | 88 | 2.6 | 7.8 | 0.00 | 0.00 | 0.00 | 38 | 1018.9 |
| 20260503221004 | 81 | 120 | 0.9 | 6.1 | 0.00 | 0.00 | 0.00 | 35 | 1019.1 |
| 20260503220004 | 80 | 179 | 0.0 | 7.0 | 0.00 | 0.00 | 0.00 | 33 | 1019.0 |
| 20260503215003 | 81 | 202 | 0.0 | 5.2 | 0.00 | 0.00 | 0.00 | 34 | 1019.1 |
| 20260503213004 | 81 | 175 | 0.9 | 6.1 | 0.00 | 0.00 | 0.00 | 33 | 1019.5 |
| 20260503212004 | 81 | 86 | 1.7 | 8.7 | 0.00 | 0.00 | 0.00 | 33 | 1019.6 |
| 20260503211004 | 81 | 89 | 0.9 | 5.2 | 0.00 | 0.00 | 0.00 | 35 | 1019.7 |
| 20260503210005 | 80 | 151 | 1.7 | 8.7 | 0.00 | 0.00 | 0.00 | 36 | 1019.9 |
| 20260503205005 | 81 | 185 | 0.9 | 6.1 | 0.00 | 0.00 | 0.00 | 37 | 1020.0 |
| 20260503204004 | 81 | 171 | 0.0 | 5.2 | 0.00 | 0.00 | 0.00 | 36 | 1020.1 |
| 20260503203004 | 80 | 211 | 1.7 | 6.1 | 0.00 | 0.00 | 0.00 | 34 | 1020.3 |
| 20260503202004 | 81 | 114 | 0.9 | 6.1 | 0.00 | 0.00 | 0.00 | 35 | 1020.4 |
| 20260503200004 | 80 | 150 | 0.9 | 5.2 | 0.00 | 0.00 | 0.00 | 35 | 1020.8 |
| 20260503195005 | 80 | 58 | 0.0 | 6.1 | 0.00 | 0.00 | 0.00 | 34 | 1020.9 |
| 20260503194004 | 80 | 74 | 2.6 | 7.8 | 0.00 | 0.00 | 0.00 | 34 | 1021.0 |
| 20260503192004 | 80 | 109 | 0.0 | 2.6 | 0.00 | 0.00 | 0.00 | 38 | 1021.3 |
| 20260503191004 | 81 | 74 | 0.0 | 5.2 | 0.00 | 0.00 | 0.00 | 38 | 1021.5 |